This is the latest recevied weather packets stored in our database for station/object TA2CAY. If no packets are shown the sender has not sent any weather packets the latest 10 day(s).
| Time | Temp. | Humidity | Pressure | Rain* | Wind** | Luminosity | Snow |
|---|---|---|---|---|---|---|---|
| 1777724706 | 16.11° C | 79% | 1025.9 hPa | - | - | - | - |
| 1777722905 | 17.22° C | 78% | 1026 hPa | - | - | - | - |
| 1777721104 | 17.22° C | 83% | 1026.3 hPa | - | - | - | - |
| 1777719303 | 18.33° C | 83% | 1026.5 hPa | - | - | - | - |
| 1777717502 | 17.78° C | 86% | 1026.8 hPa | - | - | - | - |
| 1777715702 | 16.67° C | 81% | 1027 hPa | - | - | - | - |
| 1777713900 | 18.33° C | 82% | 1027 hPa | - | - | - | - |
| 1777712099 | 18.33° C | 76% | 1027.2 hPa | - | - | - | - |
| 1777710298 | 18.33° C | 80% | 1027.4 hPa | - | - | - | - |
| 1777708497 | 18.33° C | 89% | 1027.8 hPa | - | - | - | - |
| 1777706696 | 16.67° C | 73% | 1028.1 hPa | - | - | - | - |
| 1777704896 | 15.56° C | 70% | 1028.2 hPa | - | - | - | - |
| 1777703095 | 15° C | 71% | 1028.4 hPa | - | - | - | - |
| 1777701294 | 14.44° C | 73% | 1028.4 hPa | - | - | - | - |
| 1777699493 | 13.89° C | 74% | 1028.5 hPa | - | - | - | - |
| 1777697692 | 13.89° C | 74% | 1028.4 hPa | - | - | - | - |
| 1777695891 | 13.33° C | 77% | 1028.4 hPa | - | - | - | - |
| 1777694090 | 13.33° C | 77% | 1028.4 hPa | - | - | - | - |
| 1777692289 | 13.33° C | 76% | 1028.5 hPa | - | - | - | - |
| 1777690489 | 12.78° C | 79% | 1028.7 hPa | - | - | - | - |
| 1777688688 | 13.33° C | 77% | 1028.7 hPa | - | - | - | - |
| 1777686887 | 13.33° C | 78% | 1028.7 hPa | - | - | - | - |
| 1777685086 | 13.33° C | 79% | 1029 hPa | - | - | - | - |
| 1777683285 | 13.33° C | 77% | 1029.1 hPa | - | - | - | - |
| 1777681484 | 12.78° C | 81% | 1029.3 hPa | - | - | - | - |
* Rain since midnight (hover to see other rain measurements)
** Current wind speed in m/s (hover to see current wind gust speed)